User: anonymous   Login
Location: Prague
(50.0830°N, 14.4670°E)
Time: 16:45:21
(UTC+02:00)
Language:

STARLINK-1721 - Orbit

View from above orbital plane
View from above orbital plane
View from above satellite
View from above satellite

Ground track
Ground track

The orbit data is extracted from the following two-line orbital elements,

1 46332C 20062H   21207.12623280  .00005292  00000-0  35469-3 0  2074
2 46332  53.0548  32.3993 0001801  98.4094 291.8287 15.06383026    10
Epoch (UTC): 26 July 2021 03:01:46
Eccentricity: 0.0001801
inclination: 53.0548°
perigee height: 546 km
apogee height: 548 km
right ascension of ascending node: 32.3993°
argument of perigee: 98.4094°
revolutions per day: 15.06383026
mean anomaly at epoch: 291.8287°
orbit number at epoch: 1

The dashed part of the orbit path shows where the satellite is in the earth's shadow,  

DLR